Terminal Aerodrome Forecast
Issued by NWS

Home | Current Version | Previous Version | Text Only | Print | Product List | Glossary On
Versions: 1 2 3 4 5 6 7 8 9 10 11 12 13 14 15 16 17 18 19 20 21
000
FTUS41 KGYX 252029 AAA
TAFHIE
TAF AMD
KHIE 252029Z 2520/2618 06003KT P6SM -RA SCT040 BKN050 OVC100
     FM252300 12011G18KT 6SM -RA BR BKN015 OVC040 WS020/10045KT
     FM260000 11008KT 5SM -RA OVC020 WS020/10045KT
     FM260700 10010KT P6SM OVC015=

USA.gov is the U.S. government's official web portal to all federal, state and local government web resources and services.